• In Deutschland
  • Länderverzeichnis
  • Für 7 Tage
  • Wassertemperatur
  • Satellitenkarten
  • Wetterkarte
  • Widgets
  • user-avatar
    Anmelden

    Stündliche Wetter Neumarkt in der Oberpfalz

    Heute, 18 Oktober, Mittwoch

    Zeit Temperatur Niederschläge Wind Luftdruck Luftfeuchtigkeit
    00:00 +11°C° 0 mm 0 m/S 726 mmHg 88%
    01:00 +11°C° 0 mm 0 m/S 725 mmHg 88%
    02:00 +11°C° 0 mm 0 m/S 725 mmHg 88%
    03:00 +10°C° 0 mm 0 m/S 725 mmHg 88%
    04:00 +10°C° 0 mm 0 m/S 724 mmHg 88%
    05:00 +10°C° 0 mm 0 m/S 724 mmHg 88%
    06:00 +10°C° 0 mm 0 m/S 724 mmHg 88%
    07:00 +9°C° 0 mm 0 m/S 724 mmHg 88%
    08:00 +12°C° 0 mm 1 m/S 724 mmHg 81%
    09:00 +14°C° 0 mm 1 m/S 724 mmHg 74%
    10:00 +16°C° 0 mm 1 m/S 724 mmHg 67%
    11:00 +19°C° 0 mm 1 m/S 724 mmHg 61%
    12:00 +20°C° 0 mm 1 m/S 724 mmHg 56%
    13:00 +21°C° 0 mm 1 m/S 724 mmHg 50%
    14:00 +21°C° 0 mm 1 m/S 724 mmHg 54%
    15:00 +20°C° 0 mm 1 m/S 723 mmHg 57%
    16:00 +20°C° 0 mm 1 m/S 723 mmHg 60%
    17:00 +18°C° 0 mm 1 m/S 723 mmHg 65%
    18:00 +14°C° 0 mm 0 m/S 723 mmHg 70%
    19:00 +12°C° 0 mm 0 m/S 723 mmHg 76%
    20:00 +12°C° 0 mm 0 m/S 723 mmHg 77%
    21:00 +11°C° 0 mm 0 m/S 723 mmHg 78%
    22:00 +11°C° 0 mm 0 m/S 723 mmHg 79%
    23:00 +10°C° 0 mm 0 m/S 723 mmHg 79%

    Morgen, 19 Oktober, Donnerstag

    Zeit Temperatur Niederschläge Wind Luftdruck Luftfeuchtigkeit
    00:00 +10°C° 0 mm 0 m/S 723 mmHg 80%
    01:00 +10°C° 0 mm 0 m/S 723 mmHg 80%
    02:00 +9°C° 0 mm 0 m/S 723 mmHg 81%
    03:00 +9°C° 0 mm 0 m/S 723 mmHg 82%
    04:00 +10°C° 0 mm 1 m/S 723 mmHg 82%
    05:00 +10°C° 0 mm 1 m/S 723 mmHg 83%
    06:00 +9°C° 0 mm 1 m/S 723 mmHg 85%
    07:00 +9°C° 0 mm 1 m/S 723 mmHg 86%
    08:00 +11°C° 0 mm 1 m/S 723 mmHg 79%
    09:00 +13°C° 0 mm 1 m/S 723 mmHg 72%
    10:00 +15°C° 0 mm 1 m/S 723 mmHg 66%
    11:00 +17°C° 0 mm 2 m/S 723 mmHg 61%
    12:00 +18°C° 0 mm 2 m/S 723 mmHg 57%
    13:00 +19°C° 0 mm 2 m/S 723 mmHg 53%
    14:00 +19°C° 0 mm 2 m/S 723 mmHg 57%
    15:00 +19°C° 0 mm 1 m/S 723 mmHg 60%
    16:00 +19°C° 0 mm 1 m/S 722 mmHg 64%
    17:00 +16°C° 0 mm 1 m/S 722 mmHg 69%
    18:00 +15°C° 0 mm 1 m/S 723 mmHg 73%
    19:00 +13°C° 0 mm 1 m/S 723 mmHg 78%
    20:00 +12°C° 0 mm 1 m/S 723 mmHg 79%
    21:00 +12°C° 0 mm 1 m/S 723 mmHg 80%
    22:00 +12°C° 0 mm 1 m/S 723 mmHg 81%
    23:00 +11°C° 0 mm 1 m/S 723 mmHg 81%

    übermorgen, 20 Oktober, Freitag

    Zeit Temperatur Niederschläge Wind Luftdruck Luftfeuchtigkeit
    00:00 +11°C° 0 mm 1 m/S 722 mmHg 82%
    01:00 +10°C° 0 mm 1 m/S 722 mmHg 83%
    02:00 +10°C° 0 mm 1 m/S 722 mmHg 83%
    03:00 +10°C° 0 mm 1 m/S 722 mmHg 83%
    04:00 +10°C° 0 mm 1 m/S 722 mmHg 83%
    05:00 +9°C° 0 mm 1 m/S 723 mmHg 83%
    06:00 +9°C° 0 mm 1 m/S 723 mmHg 83%
    07:00 +9°C° 0 mm 1 m/S 723 mmHg 83%
    08:00 +11°C° 0 mm 1 m/S 723 mmHg 77%
    09:00 +13°C° 0 mm 1 m/S 723 mmHg 70%
    10:00 +15°C° 0 mm 2 m/S 723 mmHg 64%
    11:00 +16°C° 0 mm 2 m/S 724 mmHg 61%
    12:00 +17°C° 0 mm 2 m/S 724 mmHg 57%
    13:00 +18°C° 0 mm 2 m/S 724 mmHg 54%
    14:00 +19°C° 0 mm 1 m/S 724 mmHg 58%
    15:00 +18°C° 0 mm 1 m/S 724 mmHg 62%
    16:00 +18°C° 0 mm 1 m/S 724 mmHg 66%
    17:00 +16°C° 0 mm 1 m/S 724 mmHg 70%
    18:00 +13°C° 0 mm 0 m/S 724 mmHg 74%
    19:00 +12°C° 0 mm 0 m/S 724 mmHg 78%
    20:00 +12°C° 0 mm 0 m/S 725 mmHg 79%
    21:00 +12°C° 0 mm 0 m/S 725 mmHg 80%
    22:00 +12°C° 0 mm 0 m/S 725 mmHg 81%
    23:00 +12°C° 0,1 mm 0 m/S 725 mmHg 82%

    21 Oktober, Samstag

    Zeit Temperatur Niederschläge Wind Luftdruck Luftfeuchtigkeit
    00:00 +12°C° 0,1 mm 0 m/S 725 mmHg 83%
    01:00 +12°C° 0,1 mm 1 m/S 725 mmHg 84%
    02:00 +12°C° 0,1 mm 1 m/S 725 mmHg 85%
    03:00 +12°C° 0,1 mm 1 m/S 725 mmHg 87%
    04:00 +11°C° 0,1 mm 1 m/S 725 mmHg 88%
    05:00 +11°C° 0 mm 1 m/S 725 mmHg 89%
    06:00 +10°C° 0 mm 1 m/S 725 mmHg 90%
    07:00 +10°C° 0 mm 1 m/S 725 mmHg 91%
    08:00 +10°C° 0 mm 2 m/S 725 mmHg 86%
    09:00 +13°C° 0 mm 2 m/S 725 mmHg 81%
    10:00 +14°C° 0 mm 2 m/S 725 mmHg 76%
    11:00 +15°C° 0 mm 2 m/S 725 mmHg 74%
    12:00 +16°C° 0 mm 2 m/S 725 mmHg 72%
    13:00 +17°C° 0 mm 2 m/S 725 mmHg 69%
    14:00 +16°C° 0 mm 2 m/S 724 mmHg 71%
    15:00 +16°C° 0 mm 2 m/S 724 mmHg 73%
    16:00 +16°C° 0 mm 1 m/S 724 mmHg 75%
    17:00 +15°C° 0 mm 1 m/S 724 mmHg 79%
    18:00 +14°C° 0 mm 1 m/S 724 mmHg 82%
    19:00 +13°C° 0 mm 1 m/S 724 mmHg 86%
    20:00 +13°C° 0,1 mm 1 m/S 724 mmHg 88%
    21:00 +13°C° 0,1 mm 1 m/S 724 mmHg 90%
    22:00 +12°C° 0,1 mm 1 m/S 724 mmHg 92%
    23:00 +12°C° 0,4 mm 2 m/S 724 mmHg 92%

    22 Oktober, Sonntag

    Zeit Temperatur Niederschläge Wind Luftdruck Luftfeuchtigkeit
    00:00 +12°C° 0,4 mm 2 m/S 725 mmHg 92%
    01:00 +11°C° 0,4 mm 3 m/S 725 mmHg 92%
    02:00 +11°C° 0,5 mm 3 m/S 725 mmHg 92%
    03:00 +10°C° 0,5 mm 3 m/S 725 mmHg 92%
    04:00 +10°C° 0,5 mm 2 m/S 725 mmHg 92%
    05:00 +10°C° 0,5 mm 2 m/S 725 mmHg 92%
    06:00 +9°C° 0,5 mm 2 m/S 725 mmHg 93%
    07:00 +9°C° 0,5 mm 2 m/S 725 mmHg 93%
    08:00 +9°C° 0,2 mm 3 m/S 725 mmHg 90%
    09:00 +10°C° 0,2 mm 3 m/S 725 mmHg 87%
    10:00 +10°C° 0,2 mm 3 m/S 725 mmHg 84%
    11:00 +10°C° 0,2 mm 3 m/S 725 mmHg 83%
    12:00 +10°C° 0,2 mm 3 m/S 725 mmHg 82%
    13:00 +10°C° 0,2 mm 3 m/S 725 mmHg 81%
    14:00 +9°C° 0,1 mm 3 m/S 725 mmHg 82%
    15:00 +9°C° 0,1 mm 3 m/S 725 mmHg 83%
    16:00 +9°C° 0,1 mm 2 m/S 725 mmHg 84%
    17:00 +8°C° 0,1 mm 2 m/S 725 mmHg 86%
    18:00 +8°C° 0,1 mm 2 m/S 725 mmHg 88%
    19:00 +7°C° 0,1 mm 2 m/S 726 mmHg 91%
    20:00 +7°C° 0 mm 2 m/S 726 mmHg 91%
    21:00 +7°C° 0 mm 2 m/S 726 mmHg 92%
    22:00 +6°C° 0 mm 2 m/S 726 mmHg 92%
    23:00 +6°C° 0 mm 2 m/S 726 mmHg 93%

    23 Oktober, Montag

    Zeit Temperatur Niederschläge Wind Luftdruck Luftfeuchtigkeit
    00:00 +6°C° 0 mm 2 m/S 726 mmHg 93%
    01:00 +5°C° 0 mm 2 m/S 726 mmHg 94%
    02:00 +5°C° 0 mm 2 m/S 726 mmHg 94%
    03:00 +5°C° 0 mm 2 m/S 727 mmHg 95%
    04:00 +5°C° 0 mm 2 m/S 727 mmHg 95%
    05:00 +5°C° 0 mm 2 m/S 727 mmHg 94%
    06:00 +5°C° 0 mm 2 m/S 727 mmHg 94%
    07:00 +4°C° 0 mm 3 m/S 728 mmHg 93%
    08:00 +5°C° 0 mm 3 m/S 728 mmHg 91%
    09:00 +5°C° 0 mm 3 m/S 728 mmHg 89%
    10:00 +7°C° 0 mm 3 m/S 729 mmHg 87%
    11:00 +7°C° 0 mm 3 m/S 729 mmHg 86%
    12:00 +7°C° 0 mm 3 m/S 729 mmHg 84%
    13:00 +8°C° 0 mm 3 m/S 729 mmHg 83%
    14:00 +8°C° 0 mm 2 m/S 729 mmHg 82%
    15:00 +8°C° 0 mm 2 m/S 729 mmHg 82%
    16:00 +8°C° 0 mm 2 m/S 730 mmHg 82%
    17:00 +7°C° 0 mm 2 m/S 730 mmHg 85%
    18:00 +7°C° 0 mm 1 m/S 730 mmHg 89%
    19:00 +6°C° 0 mm 1 m/S 730 mmHg 92%
    20:00 +6°C° 0 mm 1 m/S 730 mmHg 92%
    21:00 +5°C° 0 mm 1 m/S 731 mmHg 93%
    22:00 +5°C° 0 mm 1 m/S 731 mmHg 93%
    23:00 +5°C° 0 mm 1 m/S 731 mmHg 93%
    Mehr zeigen